TVF735B GMMX-LFPO

Flight info

Callsign TVF735B
Flight time N/A
Altitude 38000
Route MABAP UR722 SAK UG5 KORIS DCT VJF DCT SVL DCT HIJ DCT RUSEM DCT SOTUK DCT TLD DCT SIE DCT EDIGO DCT DGO DCT CEGAM DCT LUSEM DCT LULUT DCT TUDRA/N0391F280 DCT BEVOL UT158 AMB
Aircraft B738/M-SDFGHIJ1RWXY/LB1

Departure

Time 2026-05-06 12:33
Airport Marrakesh Menara Airport (GMMX)

Arrival

Time N/A
Airport Paris-Orly Airport (LFPO)
Time Latitude Longitude Altitude Speed Heading
2026-05-06 12:03 31.60306 -8.02546 1548 ft 0 kts 186°
2026-05-06 12:24 31.60323 -8.02544 1541 ft 4 kts 183°
2026-05-06 12:25 31.60351 -8.02543 1551 ft 4 kts 184°
2026-05-06 12:25 31.60376 -8.02538 1539 ft 3 kts 201°
2026-05-06 12:25 31.60397 -8.02527 1545 ft 4 kts 220°
2026-05-06 12:25 31.60413 -8.02503 1543 ft 4 kts 255°
2026-05-06 12:26 31.60415 -8.02477 1540 ft 1 kts 276°
2026-05-06 12:26 31.60415 -8.02476 1540 ft 0 kts 276°
2026-05-06 12:27 31.60415 -8.02479 1540 ft 1 kts 276°
2026-05-06 12:27 31.60418 -8.02506 1543 ft 7 kts 276°
2026-05-06 12:28 31.60426 -8.02591 1548 ft 13 kts 277°
2026-05-06 12:28 31.60437 -8.02715 1546 ft 18 kts 275°
2026-05-06 12:28 31.60449 -8.02861 1548 ft 18 kts 275°
2026-05-06 12:28 31.60461 -8.03004 1548 ft 17 kts 276°
2026-05-06 12:29 31.60473 -8.03142 1548 ft 17 kts 276°
2026-05-06 12:29 31.60485 -8.03274 1540 ft 16 kts 276°
2026-05-06 12:29 31.60498 -8.03417 1547 ft 19 kts 276°
2026-05-06 12:29 31.60513 -8.03589 1547 ft 23 kts 276°
2026-05-06 12:30 31.60530 -8.03783 1543 ft 24 kts 276°
2026-05-06 12:30 31.60546 -8.03972 1545 ft 23 kts 276°
2026-05-06 12:30 31.60562 -8.04153 1544 ft 22 kts 276°
2026-05-06 12:30 31.60578 -8.04330 1547 ft 21 kts 276°
2026-05-06 12:31 31.60593 -8.04501 1543 ft 21 kts 276°
2026-05-06 12:31 31.60608 -8.04668 1547 ft 20 kts 276°
2026-05-06 12:31 31.60622 -8.04829 1546 ft 20 kts 276°
2026-05-06 12:31 31.60636 -8.04985 1546 ft 19 kts 276°
2026-05-06 12:32 31.60648 -8.05137 1546 ft 18 kts 276°
2026-05-06 12:32 31.60702 -8.05253 1538 ft 18 kts 353°
2026-05-06 12:32 31.60821 -8.05178 1527 ft 23 kts 78°
2026-05-06 12:32 31.60808 -8.04979 1533 ft 37 kts 96°
2026-05-06 12:33 31.60754 -8.04387 1533 ft 108 kts 96°
2026-05-06 12:33 31.60657 -8.03262 1540 ft 167 kts 99°
2026-05-06 12:33 31.60507 -8.01843 2140 ft 173 kts 96°
2026-05-06 12:33 31.60147 -8.00469 2879 ft 180 kts 115°
2026-05-06 12:34 31.59608 -7.99158 3751 ft 181 kts 114°
2026-05-06 12:34 31.59081 -7.97781 4476 ft 189 kts 114°
2026-05-06 12:34 31.58630 -7.96249 4728 ft 215 kts 93°
2026-05-06 12:34 31.59062 -7.94518 4901 ft 237 kts 51°
2026-05-06 12:35 31.60452 -7.93427 5147 ft 251 kts 12°
2026-05-06 12:35 31.62209 -7.93445 5576 ft 262 kts 342°
2026-05-06 12:35 31.63931 -7.94249 6206 ft 270 kts 332°
2026-05-06 12:35 31.65638 -7.95186 6974 ft 272 kts 331°
2026-05-06 12:36 31.67368 -7.96144 7679 ft 278 kts 331°
2026-05-06 12:36 31.69138 -7.97112 8380 ft 283 kts 331°
2026-05-06 12:36 31.70940 -7.98082 9140 ft 287 kts 331°
2026-05-06 12:36 31.72774 -7.99059 9864 ft 292 kts 331°
2026-05-06 12:37 31.74651 -8.00050 10357 ft 305 kts 331°
2026-05-06 12:37 31.76663 -8.01110 10536 ft 328 kts 332°
2026-05-06 12:37 31.78785 -8.02219 11027 ft 338 kts 332°
2026-05-06 12:37 31.80945 -8.03340 11746 ft 340 kts 332°
2026-05-06 12:38 31.83116 -8.04464 12556 ft 341 kts 333°
2026-05-06 12:38 31.85298 -8.05590 13333 ft 345 kts 333°
2026-05-06 12:38 31.87506 -8.06735 14002 ft 349 kts 332°
2026-05-06 12:38 31.89736 -8.07894 14701 ft 352 kts 332°
2026-05-06 12:39 31.91985 -8.09064 15406 ft 355 kts 332°
2026-05-06 12:39 31.94254 -8.10244 16119 ft 358 kts 332°
2026-05-06 12:39 31.96547 -8.11436 16816 ft 362 kts 332°
2026-05-06 12:39 31.98860 -8.12641 17510 ft 365 kts 332°
2026-05-06 12:40 32.01197 -8.13858 18195 ft 369 kts 331°
2026-05-06 12:40 32.03558 -8.15087 18788 ft 373 kts 331°
2026-05-06 12:40 32.05939 -8.16329 19379 ft 376 kts 331°
2026-05-06 12:40 32.08342 -8.17582 19981 ft 379 kts 331°
2026-05-06 12:41 32.10822 -8.18712 20542 ft 388 kts 339°
2026-05-06 12:41 32.13516 -8.19267 21105 ft 398 kts 351°
2026-05-06 12:41 32.16315 -8.19209 21660 ft 408 kts
2026-05-06 12:41 32.19151 -8.18779 22208 ft 413 kts
2026-05-06 12:42 32.22011 -8.18279 22721 ft 418 kts
2026-05-06 12:42 32.24899 -8.17761 23248 ft 422 kts
2026-05-06 12:42 32.27815 -8.17248 23730 ft 425 kts
2026-05-06 12:42 32.30755 -8.16744 24147 ft 429 kts
2026-05-06 12:43 32.33721 -8.16249 24570 ft 432 kts
2026-05-06 12:43 32.36710 -8.15757 25043 ft 435 kts
2026-05-06 12:43 32.39709 -8.15267 25549 ft 435 kts
2026-05-06 12:43 32.42717 -8.14776 25977 ft 438 kts
2026-05-06 12:44 32.45751 -8.14283 26366 ft 442 kts
2026-05-06 12:44 32.48810 -8.13785 26763 ft 445 kts
2026-05-06 12:44 32.51889 -8.13282 27167 ft 448 kts
2026-05-06 12:44 32.54990 -8.12775 27538 ft 451 kts
2026-05-06 12:45 32.58108 -8.12265 27926 ft 454 kts
2026-05-06 12:45 32.61245 -8.11751 28317 ft 456 kts
2026-05-06 12:45 32.67524 -8.10720 29131 ft 460 kts
2026-05-06 12:46 32.70701 -8.10198 29503 ft 462 kts
2026-05-06 12:46 32.73897 -8.09675 29843 ft 465 kts
2026-05-06 12:46 32.77110 -8.09154 30134 ft 468 kts
2026-05-06 12:46 32.80344 -8.08629 30390 ft 471 kts
2026-05-06 12:47 32.83598 -8.08101 30618 ft 474 kts
2026-05-06 12:47 32.85808 -8.07741 30790 ft 476 kts
2026-05-06 12:47 32.89053 -8.07212 31030 ft 478 kts
2026-05-06 12:47 32.92345 -8.06486 31283 ft 486 kts 10°
2026-05-06 12:48 32.95573 -8.05178 31530 ft 495 kts 20°
2026-05-06 12:48 32.98650 -8.03294 31858 ft 498 kts 25°
2026-05-06 12:48 33.01663 -8.01271 32217 ft 498 kts 26°
2026-05-06 12:48 33.04670 -7.99220 32520 ft 498 kts 26°
2026-05-06 12:49 33.07684 -7.97172 32802 ft 499 kts 26°
2026-05-06 12:49 33.10713 -7.95136 33101 ft 499 kts 25°
2026-05-06 12:49 33.13746 -7.93117 33421 ft 499 kts 25°
2026-05-06 12:49 33.16783 -7.91108 33728 ft 500 kts 25°
2026-05-06 12:50 33.19831 -7.89098 34001 ft 500 kts 25°
2026-05-06 12:50 33.22878 -7.87089 34245 ft 501 kts 25°
2026-05-06 12:50 33.25924 -7.85079 34510 ft 500 kts 25°
2026-05-06 12:50 33.28970 -7.83065 34774 ft 500 kts 25°
2026-05-06 12:51 33.32014 -7.81049 35018 ft 500 kts 25°
2026-05-06 12:51 33.35058 -7.79031 35249 ft 501 kts 25°
2026-05-06 12:51 33.38103 -7.77011 35493 ft 501 kts 25°
2026-05-06 12:51 33.41150 -7.74987 35746 ft 500 kts 25°
2026-05-06 12:52 33.44193 -7.72965 35981 ft 501 kts 25°
2026-05-06 12:52 33.47232 -7.70943 36323 ft 498 kts 25°
2026-05-06 12:52 33.50256 -7.68930 36633 ft 496 kts 25°
2026-05-06 12:52 33.53277 -7.66926 36831 ft 497 kts 24°
2026-05-06 12:53 33.56340 -7.65007 37078 ft 497 kts 22°
2026-05-06 12:53 33.59430 -7.63151 37384 ft 496 kts 21°
2026-05-06 12:53 33.62520 -7.61321 37692 ft 494 kts 21°
2026-05-06 12:53 33.65595 -7.59496 37959 ft 493 kts 21°
2026-05-06 12:54 33.68676 -7.57654 37988 ft 496 kts 21°
2026-05-06 12:54 33.74859 -7.53919 38003 ft 497 kts 21°
2026-05-06 12:55 33.80995 -7.50179 37984 ft 492 kts 22°
2026-05-06 12:55 33.87072 -7.46471 37979 ft 488 kts 21°
2026-05-06 12:56 33.93069 -7.42810 37982 ft 486 kts 21°
2026-05-06 12:56 33.99143 -7.39101 38001 ft 493 kts 22°
2026-05-06 12:57 34.05292 -7.35335 37983 ft 497 kts 22°
2026-05-06 12:57 34.11454 -7.31553 37983 ft 497 kts 22°
2026-05-06 12:58 34.17617 -7.27768 37984 ft 497 kts 22°
2026-05-06 12:58 34.23777 -7.23980 37985 ft 496 kts 22°
2026-05-06 12:59 34.29926 -7.20191 37989 ft 496 kts 22°
2026-05-06 12:59 34.36068 -7.16399 37985 ft 495 kts 22°
2026-05-06 13:00 34.42194 -7.12611 37982 ft 494 kts 22°
2026-05-06 13:00 34.48299 -7.08828 37985 ft 492 kts 22°
2026-05-06 13:01 34.54394 -7.05048 38017 ft 491 kts 22°
2026-05-06 13:01 34.60437 -7.01293 37990 ft 491 kts 22°
2026-05-06 13:02 34.66564 -6.97527 37980 ft 490 kts 22°
2026-05-06 13:02 34.72612 -6.93834 37984 ft 489 kts 22°
2026-05-06 13:03 34.78694 -6.90108 37979 ft 489 kts 22°
2026-05-06 13:03 34.84777 -6.86369 37983 ft 490 kts 22°
2026-05-06 13:04 34.90862 -6.82621 37974 ft 490 kts 22°
2026-05-06 13:04 34.96946 -6.78866 37980 ft 490 kts 22°
2026-05-06 13:05 35.03031 -6.75105 37977 ft 491 kts 22°
2026-05-06 13:05 35.09123 -6.71333 37994 ft 491 kts 22°
2026-05-06 13:06 35.15221 -6.67552 37983 ft 492 kts 22°
2026-05-06 13:06 35.21321 -6.63762 37978 ft 492 kts 22°
2026-05-06 13:07 35.27419 -6.59967 37974 ft 492 kts 22°
2026-05-06 13:07 35.33515 -6.56167 38004 ft 492 kts 22°
2026-05-06 13:08 35.39609 -6.52361 37977 ft 492 kts 22°
2026-05-06 13:08 35.45702 -6.48544 37972 ft 491 kts 23°
2026-05-06 13:09 35.51704 -6.44643 37968 ft 491 kts 24°
2026-05-06 13:09 35.57726 -6.40678 37966 ft 491 kts 24°
2026-05-06 13:10 35.63746 -6.36728 37973 ft 491 kts 24°
2026-05-06 13:10 35.69770 -6.32779 37971 ft 490 kts 24°
2026-05-06 13:11 35.75789 -6.28828 37966 ft 490 kts 24°
2026-05-06 13:11 35.81802 -6.24885 37967 ft 489 kts 24°
2026-05-06 13:12 35.87816 -6.20969 37964 ft 489 kts 23°
2026-05-06 13:12 35.93841 -6.17094 37965 ft 488 kts 23°
2026-05-06 13:13 35.99862 -6.13212 37968 ft 488 kts 23°
2026-05-06 13:13 36.05879 -6.09317 37968 ft 488 kts 23°
2026-05-06 13:14 36.11896 -6.05412 37976 ft 489 kts 23°
2026-05-06 13:14 36.17916 -6.01498 37963 ft 489 kts 23°
2026-05-06 13:15 36.24033 -5.97892 37951 ft 483 kts 13°
2026-05-06 13:15 36.30510 -5.96245 37970 ft 473 kts
2026-05-06 13:16 36.37036 -5.95186 37981 ft 473 kts
2026-05-06 13:16 36.43574 -5.94095 37956 ft 475 kts
2026-05-06 13:17 36.50121 -5.92946 37937 ft 476 kts
2026-05-06 13:17 36.56673 -5.91774 37932 ft 475 kts
2026-05-06 13:18 36.63224 -5.90598 37956 ft 476 kts
2026-05-06 13:18 36.69782 -5.89422 37946 ft 476 kts
2026-05-06 13:19 36.76335 -5.88246 37934 ft 475 kts
2026-05-06 13:19 36.82879 -5.87069 37939 ft 475 kts
2026-05-06 13:20 36.89415 -5.85892 37944 ft 474 kts
2026-05-06 13:20 36.95946 -5.84714 37929 ft 474 kts
2026-05-06 13:21 37.02471 -5.83535 37924 ft 473 kts
2026-05-06 13:21 37.08980 -5.82356 37922 ft 473 kts
2026-05-06 13:22 37.15489 -5.81176 37921 ft 472 kts
2026-05-06 13:22 37.21994 -5.79994 37917 ft 472 kts
2026-05-06 13:23 37.28485 -5.78813 37934 ft 471 kts
2026-05-06 13:23 37.34964 -5.77632 37962 ft 470 kts
2026-05-06 13:24 37.41398 -5.76402 37935 ft 473 kts
2026-05-06 13:24 37.47631 -5.73515 37951 ft 482 kts 21°
2026-05-06 13:25 37.53649 -5.69780 37917 ft 483 kts 22°
2026-05-06 13:25 37.59667 -5.66033 37950 ft 482 kts 21°
2026-05-06 13:26 37.65707 -5.62336 37928 ft 482 kts 21°
2026-05-06 13:26 37.71756 -5.58661 37919 ft 483 kts 21°
2026-05-06 13:27 37.77809 -5.54981 37916 ft 483 kts 21°
2026-05-06 13:27 37.83860 -5.51292 37945 ft 483 kts 21°
2026-05-06 13:28 37.89914 -5.47594 37918 ft 483 kts 21°
2026-05-06 13:28 37.95963 -5.43890 37921 ft 482 kts 21°
2026-05-06 13:29 38.02001 -5.40186 37915 ft 482 kts 21°
2026-05-06 13:29 38.08031 -5.36481 37947 ft 482 kts 22°
2026-05-06 13:30 38.14068 -5.32765 37904 ft 482 kts 21°
2026-05-06 13:30 38.20099 -5.29045 37918 ft 482 kts 21°
2026-05-06 13:31 38.26127 -5.25321 37926 ft 481 kts 21°
2026-05-06 13:31 38.32151 -5.21591 37930 ft 482 kts 21°
2026-05-06 13:32 38.38177 -5.17854 37928 ft 482 kts 21°
2026-05-06 13:32 38.44205 -5.14108 37925 ft 482 kts 21°
2026-05-06 13:33 38.50233 -5.10357 37921 ft 482 kts 21°
2026-05-06 13:33 38.56374 -5.06994 37962 ft 479 kts 17°
2026-05-06 13:34 38.61547 -5.04423 37927 ft 479 kts 17°
2026-05-06 13:34 38.68768 -5.00804 37920 ft 480 kts 17°
2026-05-06 13:35 38.74965 -4.97632 37927 ft 479 kts 17°
2026-05-06 13:35 38.80151 -4.94959 37937 ft 479 kts 17°
2026-05-06 13:36 38.86336 -4.91768 37933 ft 479 kts 17°
2026-05-06 13:36 38.92515 -4.88575 37923 ft 479 kts 17°
2026-05-06 13:37 38.98696 -4.85378 37930 ft 479 kts 17°
2026-05-06 13:37 39.04868 -4.82175 37947 ft 479 kts 18°
2026-05-06 13:38 39.11040 -4.78962 37935 ft 478 kts 18°
2026-05-06 13:38 39.17204 -4.75748 37926 ft 477 kts 18°
2026-05-06 13:39 39.23353 -4.72539 37938 ft 477 kts 18°
2026-05-06 13:39 39.29456 -4.69351 37944 ft 476 kts 18°
2026-05-06 13:40 39.35630 -4.66120 37941 ft 475 kts 18°
2026-05-06 13:40 39.41715 -4.62929 37935 ft 475 kts 18°
2026-05-06 13:41 39.47830 -4.59715 37927 ft 474 kts 18°
2026-05-06 13:41 39.53936 -4.56501 37930 ft 473 kts 18°
2026-05-06 13:42 39.60064 -4.53268 37941 ft 472 kts 18°
2026-05-06 13:42 39.66111 -4.50071 37936 ft 472 kts 18°
2026-05-06 13:43 39.72200 -4.46847 37963 ft 472 kts 18°
2026-05-06 13:43 39.78285 -4.43619 37949 ft 473 kts 18°
2026-05-06 13:44 39.84376 -4.40380 37952 ft 473 kts 18°
2026-05-06 13:44 39.90465 -4.37136 37953 ft 473 kts 18°
2026-05-06 13:45 39.96564 -4.33882 37974 ft 474 kts 18°
2026-05-06 13:45 40.05592 -4.28548 37953 ft 475 kts 22°
2026-05-06 13:46 40.11557 -4.24830 37956 ft 475 kts 22°
2026-05-06 13:46 40.17531 -4.21144 37955 ft 474 kts 21°
2026-05-06 13:47 40.23509 -4.17483 37959 ft 474 kts 21°
2026-05-06 13:47 40.29478 -4.13829 37959 ft 473 kts 21°
2026-05-06 13:48 40.35434 -4.10175 37962 ft 472 kts 21°
2026-05-06 13:48 40.41384 -4.06516 37994 ft 472 kts 21°
2026-05-06 13:49 40.47321 -4.02857 37977 ft 471 kts 21°
2026-05-06 13:49 40.53245 -3.99199 37974 ft 470 kts 21°
2026-05-06 13:50 40.59149 -3.95545 37986 ft 468 kts 21°
2026-05-06 13:50 40.65043 -3.91892 37993 ft 468 kts 21°
2026-05-06 13:51 40.70924 -3.88238 37995 ft 467 kts 21°
2026-05-06 13:51 40.76763 -3.84605 37990 ft 467 kts 21°
2026-05-06 13:52 40.82630 -3.80946 37948 ft 467 kts 21°
2026-05-06 13:52 40.88500 -3.77278 37959 ft 467 kts 21°
2026-05-06 13:53 40.94372 -3.73602 37966 ft 467 kts 21°
2026-05-06 13:53 41.00252 -3.69914 37957 ft 468 kts 21°
2026-05-06 13:54 41.06131 -3.66217 37968 ft 468 kts 21°
2026-05-06 13:54 41.12024 -3.62506 37968 ft 469 kts 21°
2026-05-06 13:55 41.17943 -3.58892 37966 ft 468 kts 19°
2026-05-06 13:55 41.23966 -3.55633 37964 ft 468 kts 18°
2026-05-06 13:56 41.30003 -3.52402 37990 ft 468 kts 18°
2026-05-06 13:56 41.36025 -3.49118 37964 ft 468 kts 19°
2026-05-06 13:57 41.42038 -3.45809 37972 ft 467 kts 19°
2026-05-06 13:57 41.48043 -3.42501 37971 ft 466 kts 18°
2026-05-06 13:58 41.54035 -3.39198 37988 ft 465 kts 18°
2026-05-06 13:58 41.60017 -3.35899 37972 ft 465 kts 18°
2026-05-06 13:59 41.65988 -3.32599 37967 ft 464 kts 18°
2026-05-06 13:59 41.71946 -3.29298 37970 ft 463 kts 18°
2026-05-06 14:00 41.77896 -3.25995 37973 ft 463 kts 19°
2026-05-06 14:00 41.83836 -3.22692 37968 ft 462 kts 19°
2026-05-06 14:01 41.89766 -3.19386 37967 ft 461 kts 19°
2026-05-06 14:01 41.95689 -3.16078 37992 ft 461 kts 19°
2026-05-06 14:02 42.01609 -3.12765 37976 ft 460 kts 19°
2026-05-06 14:02 42.07519 -3.09450 37977 ft 460 kts 19°
2026-05-06 14:03 42.13429 -3.06129 37975 ft 460 kts 19°
2026-05-06 14:03 42.19290 -3.02829 37995 ft 460 kts 19°
2026-05-06 14:04 42.25196 -2.99496 37985 ft 461 kts 19°
2026-05-06 14:04 42.31147 -2.96132 37984 ft 461 kts 19°
2026-05-06 14:05 42.37014 -2.92808 38026 ft 460 kts 19°
2026-05-06 14:05 42.42912 -2.89450 38022 ft 460 kts 21°
2026-05-06 14:06 42.48319 -2.84744 38007 ft 466 kts 38°
2026-05-06 14:06 42.53140 -2.78865 38007 ft 466 kts 39°
2026-05-06 14:07 42.57931 -2.72944 38014 ft 466 kts 39°
2026-05-06 14:07 42.62752 -2.67070 38017 ft 465 kts 39°
2026-05-06 14:08 42.67583 -2.61217 38026 ft 465 kts 39°
2026-05-06 14:08 42.72413 -2.55362 38028 ft 465 kts 39°
2026-05-06 14:09 42.77245 -2.49488 38024 ft 466 kts 39°
2026-05-06 14:09 42.82073 -2.43602 38032 ft 466 kts 39°
2026-05-06 14:10 42.86929 -2.37669 38031 ft 466 kts 39°
2026-05-06 14:10 42.91724 -2.31799 38033 ft 466 kts 39°
2026-05-06 14:11 42.96550 -2.25878 38022 ft 467 kts 39°
2026-05-06 14:11 43.01407 -2.20014 38054 ft 466 kts 37°
2026-05-06 14:12 43.06371 -2.14322 38048 ft 466 kts 37°
2026-05-06 14:12 43.11334 -2.08630 38045 ft 466 kts 37°
2026-05-06 14:13 43.16281 -2.02901 38037 ft 466 kts 37°
2026-05-06 14:13 43.21225 -1.97144 38054 ft 466 kts 37°
2026-05-06 14:14 43.26155 -1.91388 38047 ft 465 kts 38°
2026-05-06 14:14 43.31083 -1.85625 38059 ft 465 kts 38°
2026-05-06 14:15 43.36014 -1.79849 38051 ft 467 kts 38°
2026-05-06 14:15 43.41189 -1.74495 38057 ft 464 kts 30°
2026-05-06 14:16 43.46625 -1.69697 38022 ft 464 kts 29°
2026-05-06 14:16 43.52020 -1.64955 38035 ft 463 kts 30°
2026-05-06 14:17 43.55634 -1.61723 38009 ft 463 kts 30°